Location: Seattle
(47.6064°N, 122.3308°W)
Time: 02:20:24
(UTC-08:00)

SR - Pass Details

Date: 28 November 2020
Orbit: 575 x 880 km, 66.7° (Epoch: 19 January)

Event Time Altitude Azimuth Distance (km) Brightness Sun altitude
Rises 17:16:52 0° 162° (SSE) 2,795 ? -9.2°
Reaches altitude 10° 17:20:00 10° 136° (SE) 1,932 ? -9.7°
Maximum altitude 17:22:13 14° 105° (ESE) 1,721 ? -10.0°
Enters shadow 17:23:30 13° 87° (E) 1,822 ? -10.2°
